ALAS71 MRPV-MRTR

Flight info

Callsign ALAS71
Flight time 0h 28m
Altitude 6500
Route GUACIMA OROTINA COSTA DEL PACIFICO ISLAS TORTUGAS
Aircraft DA40/L-SG/C

Departure

Time 2026-04-28 20:38
Airport Tobías Bolaños International Airport (MRPV)

Arrival

Time 2026-04-28 21:07
Airport Tambor Airport (MRTR)
Time Latitude Longitude Altitude Speed Heading
2026-04-28 20:14 9.95808 -84.14612 3243 ft 0 kts 185°
2026-04-28 20:36 9.95765 -84.14585 3244 ft 10 kts 96°
2026-04-28 20:37 9.95765 -84.14573 3243 ft 9 kts 92°
2026-04-28 20:37 9.95746 -84.14343 3245 ft 54 kts 95°
2026-04-28 20:37 9.95711 -84.13910 3373 ft 63 kts 92°
2026-04-28 20:37 9.95661 -84.13489 3570 ft 66 kts 92°
2026-04-28 20:38 9.95613 -84.13013 3806 ft 67 kts 94°
2026-04-28 20:38 9.95571 -84.12511 3977 ft 74 kts 91°
2026-04-28 20:38 9.95680 -84.12016 4180 ft 82 kts 49°
2026-04-28 20:38 9.96265 -84.11871 4351 ft 92 kts
2026-04-28 20:39 9.96924 -84.11930 4493 ft 89 kts 353°
2026-04-28 20:39 9.97287 -84.12478 4494 ft 115 kts 270°
2026-04-28 20:39 9.97192 -84.13301 4396 ft 122 kts 263°
2026-04-28 20:39 9.97160 -84.14164 4344 ft 127 kts 272°
2026-04-28 20:40 9.97159 -84.15076 4226 ft 138 kts 271°
2026-04-28 20:40 9.97142 -84.16019 4125 ft 141 kts 271°
2026-04-28 20:40 9.97136 -84.16152 4128 ft 138 kts 270°
2026-04-28 20:41 9.97038 -84.17107 4002 ft 135 kts 260°
2026-04-28 20:41 9.96834 -84.17973 4144 ft 117 kts 253°
2026-04-28 20:41 9.96634 -84.18729 4275 ft 104 kts 251°
2026-04-28 20:41 9.96472 -84.19501 4404 ft 106 kts 258°
2026-04-28 20:42 9.96352 -84.20219 4397 ft 113 kts 264°
2026-04-28 20:42 9.96257 -84.20748 4424 ft 113 kts 258°
2026-04-28 20:42 9.96074 -84.21465 4628 ft 98 kts 256°
2026-04-28 20:42 9.95883 -84.22122 4684 ft 104 kts 259°
2026-04-28 20:43 9.95746 -84.22872 4693 ft 110 kts 263°
2026-04-28 20:43 9.95643 -84.23675 4637 ft 118 kts 267°
2026-04-28 20:43 9.95573 -84.24515 4501 ft 128 kts 268°
2026-04-28 20:43 9.95480 -84.25404 4358 ft 131 kts 270°
2026-04-28 20:44 9.95481 -84.26357 4318 ft 135 kts 275°
2026-04-28 20:44 9.95579 -84.27293 4361 ft 130 kts 281°
2026-04-28 20:44 9.95641 -84.28077 4875 ft 89 kts 271°
2026-04-28 20:44 9.95616 -84.28783 4831 ft 115 kts 272°
2026-04-28 20:45 9.95602 -84.29554 5052 ft 106 kts 271°
2026-04-28 20:45 9.95573 -84.30091 5110 ft 111 kts 269°
2026-04-28 20:45 9.95480 -84.30713 5306 ft 104 kts 262°
2026-04-28 20:46 9.95301 -84.31443 5447 ft 111 kts 258°
2026-04-28 20:46 9.95106 -84.32154 5743 ft 96 kts 256°
2026-04-28 20:46 9.94861 -84.32833 5858 ft 112 kts 254°
2026-04-28 20:46 9.94643 -84.33564 6106 ft 99 kts 259°
2026-04-28 20:47 9.94403 -84.34293 6155 ft 119 kts 258°
2026-04-28 20:47 9.94210 -84.35050 6367 ft 114 kts 258°
2026-04-28 20:47 9.93955 -84.35849 6418 ft 120 kts 255°
2026-04-28 20:47 9.93672 -84.36679 6410 ft 128 kts 257°
2026-04-28 20:48 9.93413 -84.37540 6375 ft 133 kts 258°
2026-04-28 20:48 9.93183 -84.38482 6346 ft 134 kts 262°
2026-04-28 20:48 9.93007 -84.39383 6410 ft 130 kts 264°
2026-04-28 20:48 9.92846 -84.40300 6414 ft 132 kts 267°
2026-04-28 20:49 9.92671 -84.41215 6456 ft 132 kts 259°
2026-04-28 20:49 9.92451 -84.42112 6456 ft 133 kts 264°
2026-04-28 20:49 9.92288 -84.43053 6474 ft 133 kts 263°
2026-04-28 20:49 9.92124 -84.43975 6542 ft 131 kts 266°
2026-04-28 20:50 9.91980 -84.44884 6557 ft 134 kts 262°
2026-04-28 20:50 9.91771 -84.45872 6397 ft 146 kts 265°
2026-04-28 20:50 9.91578 -84.46856 6412 ft 143 kts 260°
2026-04-28 20:50 9.91310 -84.47846 6283 ft 149 kts 258°
2026-04-28 20:51 9.91095 -84.48877 6137 ft 148 kts 269°
2026-04-28 20:51 9.91092 -84.49816 6357 ft 124 kts 281°
2026-04-28 20:51 9.91128 -84.50802 6050 ft 146 kts 273°
2026-04-28 20:51 9.91163 -84.51745 6239 ft 129 kts 276°
2026-04-28 20:52 9.91137 -84.52701 6049 ft 146 kts 267°
2026-04-28 20:52 9.90897 -84.53675 6026 ft 143 kts 257°
2026-04-28 20:52 9.90605 -84.54621 6149 ft 127 kts 258°
2026-04-28 20:52 9.90436 -84.55456 6174 ft 132 kts 266°
2026-04-28 20:53 9.90414 -84.57256 6265 ft 132 kts 270°
2026-04-28 20:53 9.90305 -84.58180 6324 ft 131 kts 267°
2026-04-28 20:53 9.90165 -84.59100 6368 ft 129 kts 266°
2026-04-28 20:54 9.90056 -84.59977 6454 ft 127 kts 268°
2026-04-28 20:54 9.89967 -84.60897 6449 ft 130 kts 271°
2026-04-28 20:54 9.89891 -84.61862 6030 ft 155 kts 268°
2026-04-28 20:54 9.89747 -84.63022 5793 ft 159 kts 265°
2026-04-28 20:55 9.89568 -84.64098 5720 ft 153 kts 264°
2026-04-28 20:55 9.89408 -84.65080 5964 ft 126 kts 264°
2026-04-28 20:55 9.89184 -84.65983 5791 ft 145 kts 256°
2026-04-28 20:55 9.88925 -84.66996 5665 ft 147 kts 261°
2026-04-28 20:56 9.88717 -84.68030 5560 ft 147 kts 263°
2026-04-28 20:56 9.88533 -84.68982 5717 ft 133 kts 262°
2026-04-28 20:56 9.88217 -84.69896 5588 ft 143 kts 245°
2026-04-28 20:56 9.87760 -84.70798 5530 ft 142 kts 246°
2026-04-28 20:57 9.87291 -84.71674 5453 ft 140 kts 241°
2026-04-28 20:57 9.86743 -84.72497 5329 ft 141 kts 237°
2026-04-28 20:57 9.86204 -84.73316 5209 ft 140 kts 242°
2026-04-28 20:57 9.85716 -84.74175 5077 ft 140 kts 242°
2026-04-28 20:58 9.85224 -84.75010 5022 ft 135 kts 242°
2026-04-28 20:58 9.84741 -84.75836 4854 ft 140 kts 243°
2026-04-28 20:58 9.84252 -84.76693 4754 ft 137 kts 244°
2026-04-28 20:58 9.83813 -84.77522 4665 ft 136 kts 246°
2026-04-28 20:59 9.83349 -84.78374 4514 ft 138 kts 243°
2026-04-28 20:59 9.82866 -84.79205 4453 ft 135 kts 243°
2026-04-28 20:59 9.82414 -84.80047 4345 ft 136 kts 245°
2026-04-28 20:59 9.81964 -84.80892 4229 ft 137 kts 245°
2026-04-28 21:00 9.81494 -84.81762 4034 ft 141 kts 244°
2026-04-28 21:00 9.81030 -84.82632 3859 ft 143 kts 243°
2026-04-28 21:00 9.80505 -84.83500 3607 ft 148 kts 242°
2026-04-28 21:00 9.80007 -84.84432 3380 ft 147 kts 246°
2026-04-28 21:01 9.79499 -84.85284 3315 ft 139 kts 237°
2026-04-28 21:01 9.79023 -84.86135 3138 ft 141 kts 247°
2026-04-28 21:01 9.78599 -84.87034 2947 ft 140 kts 245°
2026-04-28 21:01 9.78181 -84.87907 2802 ft 137 kts 245°
2026-04-28 21:02 9.77705 -84.88754 2608 ft 138 kts 240°
2026-04-28 21:02 9.77229 -84.89578 2483 ft 134 kts 243°
2026-04-28 21:02 9.76777 -84.90413 2283 ft 135 kts 242°
2026-04-28 21:02 9.76282 -84.91220 2185 ft 134 kts 235°
2026-04-28 21:03 9.75709 -84.91941 2203 ft 129 kts 229°
2026-04-28 21:03 9.75076 -84.92597 2125 ft 131 kts 226°
2026-04-28 21:03 9.74447 -84.93277 1960 ft 134 kts 229°
2026-04-28 21:03 9.73867 -84.93956 2028 ft 119 kts 231°
2026-04-28 21:04 9.73385 -84.94641 1901 ft 126 kts 237°
2026-04-28 21:04 9.72893 -84.95362 1875 ft 121 kts 232°
2026-04-28 21:04 9.72332 -84.96016 1790 ft 123 kts 229°
2026-04-28 21:04 9.71955 -84.96786 1650 ft 129 kts 261°
2026-04-28 21:05 9.72200 -84.97635 1496 ft 131 kts 306°
2026-04-28 21:05 9.72946 -84.98149 1396 ft 123 kts 332°
2026-04-28 21:05 9.73519 -84.98682 1172 ft 104 kts 286°
2026-04-28 21:05 9.73515 -84.99369 973 ft 94 kts 255°
2026-04-28 21:06 9.73391 -85.00020 656 ft 94 kts 259°
2026-04-28 21:06 9.73399 -85.00597 382 ft 77 kts 272°
2026-04-28 21:06 9.73599 -85.01105 122 ft 79 kts 294°
2026-04-28 21:06 9.73877 -85.01537 54 ft 58 kts 298°
2026-04-28 21:07 9.74044 -85.01799 71 ft 34 kts 304°
2026-04-28 21:07 9.74110 -85.01932 80 ft 9 kts 154°
2026-04-28 21:07 9.74096 -85.01909 70 ft 0 kts 89°